Voltar ao catálogo

STARLINK-3957

AtivoComunicaçõesVLEO
NORAD 52562·PAYLOAD·🇺🇸 United States

Lançado May 13, 2022 de Vandenberg Space Force Base

Loading…

Próximas Passagens (próximas 24 horas)

TLE

AtualizadoSource: CelesTrak SupGP

Época: Sep 15, 2026, 01:48 UTC

1 52562C 22051AF  26258.07548611  .00042686  00000+0  12612-2 0  2582
2 52562  53.1586 333.1142 0001186  89.4993  79.8830 15.34367842    14

Acompanhe STARLINK-3957 em tempo real com AllMySat

Download on the App Store